Terminal Aerodrome Forecast
Issued by NWS Quad Cities IA IL

Home | Current Version | Previous Version | Text Only | Print | Product List | Glossary On
Versions: 1 2 3 4 5 6 7 8 9 10 11 12 13 14 15 16 17
000
FTUS43 KDVN 291100
TAFDBQ
TAF
KDBQ 291126Z 2912/3012 18014G22KT 6SM -RA BKN050 OVC080
      TEMPO 2912/2914 FZRA
     FM291600 20023G28KT P6SM OVC100
     FM292000 29017G31KT P6SM FEW100 SCT250
     FM300600 28008KT P6SM SKC=

USA.gov is the U.S. government's official web portal to all federal, state and local government web resources and services.